Location: Franzen
(48.6167°N, 15.3833°E)
Time: 08:24:50
(UTC+00:00)

A-11 Canister half - Pass Details

Date: 01 August 2021
Orbit: 1515 x 1685 km, 47.2° (Epoch: 21 September)

Event Time Altitude Azimuth Distance (km) Brightness Sun altitude
Rises 20:59:42 0° 286° (WNW) 4,894 12.4 -18.0°
Reaches altitude 10° 21:02:52 10° 283° (WNW) 3,921 11.7 -18.3°
Maximum altitude 21:12:42 60° 208° (SSW) 1,888 9.2 -19.1°
Enters shadow 21:18:51 26° 139° (SE) 2,869 9.8 -19.5°
Drops below altitude 10° 21:22:35 10° 132° (SE) 3,937 - -19.8°
Sets 21:25:47 0° 129° (SE) 4,915 - -20.0°
